Regional Weather Roundup
Issued by NWS

Home | Current Version | Previous Version | Graphics & Text | Print | Product List | Glossary On
Versions: 1 2 3 4 5 6 7 8 9 10 11 12 13 14 15 16 17 18 19 20 21 22 23 24 25 26 27
000
ASUS45 KBOU 200210
RWRCO

WEATHER ROUNDUP FOR COLORADO
NATIONAL WEATHER SERVICE DENVER/BOULDER CO
700 PM MST FRI JAN 19 2018

NOTE: "FAIR" INDICATES FEW OR NO CLOUDS BELOW 12000 FEET WITH NO
SIGNIFICANT WEATHER AND/OR OBSTRUCTIONS TO VISIBILITY.

COZ001>005-013-030-031-200300-
...NORTHWEST COLORADO...

CITY           SKY/WX    TMP DP  RH WIND       PRES   REMARKS
CRAIG          FAIR      37  25  61 W10       29.82F
HAYDEN         FAIR     N/A N/A N/A NW9       29.84S
MEEKER         FAIR      47  22  37 VRB3      29.83F
RABBIT EARS PA FAIR      30  19  64 W9G17     29.93R WCI  22
STEAMBOAT SPGS FAIR      37  22  56 CALM      29.84S
WALDEN         FAIR      37  18  44 SW14      29.87S
$$

COZ006>008-011-200300-
...WEST CENTRAL VALLEYS...

CITY           SKY/WX    TMP DP  RH WIND       PRES   REMARKS
GRAND JUNCTION FAIR      36  21  54 NE7       29.87S
MONTROSE       FAIR      43  22  43 SE7       29.91R
EAGLE          FAIR      38  19  46 SE8       29.89S
RIFLE          FAIR      38  23  55 S3        29.87S
DELTA          FAIR      46  19  35 CALM      29.89R
NUCLA          FAIR      50  19  29 S7        29.97F
$$

COZ017>023-064>068-200300-
...SOUTHWEST COLORADO...

CITY           SKY/WX    TMP DP  RH WIND       PRES   REMARKS
DURANGO        FAIR      40  19  43 N8        29.99S
CORTEZ         FAIR      34  19  54 NE7       29.96S WCI  28
PAGOSA SPRINGS FAIR      37  16  43 CALM      30.04S
TELLURIDE      MOCLDY    41  18  38 CALM      30.06S
WOLF CREEK PAS FAIR      23  14  68 S15G23    30.16S WCI  10
$$

COZ009-010-012-014-032>034-037-058>063-200300-
...CENTRAL COLORADO...

CITY           SKY/WX    TMP DP  RH WIND       PRES   REMARKS
ASPEN          FAIR      38  21  50 S8        29.91R
BUENA VISTA    FAIR      46  14  27 W13G18    29.92S
COPPER MTN     NOT AVBL
BERTHOUD PASS  FAIR      28  16  59 W33G56    29.98F WCI  12
COTTONWOOD PAS   N/A     45  14  29 SW16G28   29.98S
GUNNISON       FAIR      26  17  68 CALM      29.98R
KREMMLING      FAIR      46  19  34 SW9       29.87S
LEADVILLE      FAIR      30  12  47 E8        29.96F WCI  22
MONARCH PASS   FAIR      28  16  59 W33G40    30.16R WCI  12
SALIDA         FAIR      48  17  28 SW13      30.00R
SUNLIGHT       FAIR      30  16  55 SW18G28   30.02S WCI  18
WILKERSON PASS FAIR      34   5  29 SW16G35   30.03R WCI  23
$$

COZ069>075-200300-
...SAN LUIS VALLEY/SANGRE DE CRISTO MOUNTAINS...

CITY           SKY/WX    TMP DP  RH WIND       PRES   REMARKS
ALAMOSA        FAIR      36  13  38 W8        29.96R
DEL NORTE      FAIR      28   2  33 W8        29.99S WCI  20
LA VETA PASS   FAIR      36  14  41 SW17G29     N/A
SAGUACHE       FAIR      28   5  37 N8        29.98S WCI  20
$$

COZ035-036-038>040-200300-
...NORTHERN COLORADO FRONT RANGE...

CITY           SKY/WX    TMP DP  RH WIND       PRES   REMARKS
DENVER INTL AP FAIR      45  19  35 SE10      29.74R
DMNS CITY PARK NOT AVBL
AURORA         MOCLDY    44  19  36 SE5       29.76R
FRONT RANGE AP   N/A     50  18  27 E12       29.76
ERIE MUNI ARPT FAIR      43  17  35 CALM      29.78R
BOULDER MUN AP FAIR      59  14  17 W12G17    29.72S
CENTENNIAL     MOCLDY    54  14  20 W5        29.76R
BROOMFIELD     MOCLDY    54  16  22 VRB5      29.75S
FORT COLLINS   FAIR      52  18  26 S7        29.73R
LONGMONT       FAIR      53  15  21 W12G18    29.74S
$$

COZ041-046-047-076>085-087-088-200300-
...PIKES PEAK/PALMER DIVIDE AND SOUTHERN FOOTHILLS...

CITY           SKY/WX    TMP DP  RH WIND       PRES   REMARKS
COLO. SPRINGS  MOCLDY    58  17  20 VRB5      29.83R
A. F. ACADEMY  FAIR      50  11  21 SW6       29.84R
SCHRIEVER AFB  FAIR      49  14  24 NW7       29.83R
CHEYENNE MTN   FAIR      54  14  20 S9        29.82R
ELLICOTT         N/A    N/A N/A N/A W13       29.80R
FALCON         FAIR      44  12  27 S3        29.87R
FORT CARSON    FAIR      53  16  23 W10       29.81R
LIMON          FAIR      32  19  58 CALM      29.77R
MONUMENT HILL  FAIR      50  12  22 SW13G18   29.85S
CANON CITY     FAIR      59  19  21 W13       29.80S
WALSENBURG     FAIR      54  19  26 W16       29.86R
TRINIDAD       FAIR      50  15  24 SW12      29.84R
$$

COZ042>045-048>051-090-091-200300-
...NORTHEAST COLORADO...

CITY           SKY/WX    TMP DP  RH WIND       PRES   REMARKS
GREELEY ARPT   FAIR      35  22  58 N5        29.72S WCI  31
AKRON          FAIR      44  22  41 SE7       29.73R
BURLINGTON     FAIR      45  20  36 E9        29.74R
WRAY           FAIR      43  23  45 CALM      29.72R
YUMA           FAIR      39  19  45 S8        29.73R
STERLING       FAIR      37  25  60 W3        29.71R
HOLYOKE        FAIR      41  27  56 CALM      29.72S
FORT MORGAN    FAIR      44  17  33 CALM      29.72S
$$

COZ086-089-092>099-200300-
...SOUTHEAST COLORADO...

CITY           SKY/WX    TMP DP  RH WIND       PRES   REMARKS
PUEBLO         FAIR      50  16  25 W12       29.76S
LA JUNTA       FAIR      59  18  20 W15       29.72S
LAMAR          FAIR      42  14  32 S7        29.70R
SPRINGFIELD      N/A     46  14  27 W6        29.75S
$$




USA.gov is the U.S. government's official web portal to all federal, state and local government web resources and services.